Regional Weather Roundup
Issued by NWS Little Rock, AR

Home | Current Version | Previous Version | Graphics & Text | Print | Product List | Glossary On
Versions: 1 2 3 4 5 6 7 8 9 10 11 12 13 14 15 16 17 18 19 20 21 22 23 24 25 26 27 28 29 30 31 32
000
ASUS44 KLZK 220505
RWRLZK

WEATHER ROUNDUP FOR ARKANSAS
NATIONAL WEATHER SERVICE LITTLE ROCK AR
1200 AM CDT MON MAY 22 2017

NOTE: "FAIR" INDICATES FEW OR NO CLOUDS BELOW 12,000 FEET WITH NO
SIGNIFICANT WEATHER AND/OR OBSTRUCTIONS TO VISIBILITY.

ARZ001-003-010-029-220600-
NORTHWEST ARKANSAS

CITY           SKY/WX    TMP DP  RH WIND       PRES   REMARKS
FAYETTEVILLE   CLOUDY    54  53  97 CALM      30.17F
FORT SMITH     CLOUDY    64  53  67 CALM      30.14F
HARRISON       CLOUDY    55  49  80 CALM      30.18S
BENTONVILLE    CLOUDY    57  52  82 CALM      30.18S
ROGERS         CLOUDY    56  52  86 CALM      30.18F
SILOAM SPGS    CLOUDY    55  48  76 CALM      30.17S
$$

ARZ004-005-016-220600-
NORTH CENTRAL ARKANSAS

CITY           SKY/WX    TMP DP  RH WIND       PRES   REMARKS
BATESVILLE     CLOUDY    57  52  82 NW5       30.16S
FLIPPIN        CLOUDY    55  48  76 CALM      30.15S
MTN HOME       CLOUDY    55  49  80 CALM      30.16R
$$

ARZ040-041-220600-
WEST CENTRAL ARKANSAS

CITY           SKY/WX    TMP DP  RH WIND       PRES   REMARKS
MENA           CLOUDY    57  55  94 CALM      30.16S
MOUNT IDA      CLOUDY    58  54  86 CALM      30.13R
$$

ARZ009-017-025-026-028-220600-
NORTHEAST ARKANSAS

CITY           SKY/WX    TMP DP  RH WIND       PRES   REMARKS
JONESBORO      CLOUDY    62  51  67 NW3       30.13S
NEWPORT        CLOUDY    62  54  74 NW7       30.14S
WALNUT RIDGE   CLOUDY    61  48  63 NW5       30.15R
BLYTHEVILLE    PTCLDY    62  57  83 NW5       30.13S
$$

ARZ022-023-033-042-044-220600-
CENTRAL ARKANSAS

CITY           SKY/WX    TMP DP  RH WIND       PRES   REMARKS
LITTLE ROCK    CLOUDY    60  52  74 NE6       30.13F
N LITTLE ROCK    N/A     62  50  65 N5        30.13F
JACKSONVILLE   CLOUDY    58  56  92 CALM      30.12F
CONWAY           N/A     61  57  88 N3        30.12F
SEARCY         MOCLDY    57  56  96 CALM      30.16S
HOT SPRINGS    CLOUDY    63  54  72 CALM      30.14S
RUSSELLVILLE   CLOUDY    57  54  89 CALM      30.13F
CLINTON        FAIR      54  54 100 CALM      30.15F
$$

ARZ036-220600-
EAST ARKANSAS

CITY           SKY/WX    TMP DP  RH WIND       PRES   REMARKS
WEST MEMPHIS   CLOUDY    61  57  87 NW3       30.11S
$$

ARZ050-053-066-070-073-220600-
SOUTHWEST ARKANSAS

CITY           SKY/WX    TMP DP  RH WIND       PRES   REMARKS
ARKADELPHIA    FAIR      61  59  93 N3        30.12F
CAMDEN         CLOUDY    63  59  88 CALM      30.11F
TEXARKANA      CLOUDY    64  58  80 E3        30.11S
DE QUEEN       CLOUDY    61  58  90 CALM      30.10F
$$

ARZ056-057-069-220600-
SOUTHEAST ARKANSAS

CITY           SKY/WX    TMP DP  RH WIND       PRES   REMARKS
PINE BLUFF     CLOUDY    64  54  69 N3        30.13S
STUTTGART      CLOUDY    63  48  59 NE3       30.13S
MONTICELLO     CLOUDY    63  61  93 CALM      30.10F

$$






USA.gov is the U.S. government's official web portal to all federal, state and local government web resources and services.